Tracking 19969 objects as of 13-Nov-2019
Live streaming from Space Station
objects crossing your sky now
Track the group of recently launched Starlink satellites

SL-8 DEB

Track SL-8 DEB now!
10-day predictions


NORAD ID: 39693
Int'l Code: 1991-009DG
Perigee: 1,494.5 km
Apogee: 1,697.7 km
Inclination: 74.0 °
Period: 118.0 minutes
Semi major axis: 7967 km
RCS: 0.018 m2 (small)
Launch date: February 12, 1991
Source: Commonwealth of Independent States (former USSR) (CIS)
Launch site: PLESETSK MISSILE AND SPACE COMPLEX (PKMTR)

Note: This is SATELLITE DEBRIS
aabbcc
Your satellite tracking list
Your tracking list is empty




NASA's NSSDC Master Catalog

Two Line Element Set (TLE):
1 39693U 91009DG  19315.37749147  .00000004  00000-0  16761-3 0  9998
2 39693  74.0321 309.8550 0127539  97.9952 263.5577 12.20824662686993
Source of the keplerian elements: AFSPC